Theta_e
339 341 338 335 335 334 333 333 335 335 337 338 337 337 337 338 338 337 336 338 338 339 339 339 338 339 339 337 336 335 334 337 338 337 338 338 339 337 337 336 334 333 331
338 339 340 340 338 336 334 333 333 333 336 338 337 337 338 338 337 338 338 338 339 339 339 339 339 339 337 335 335 336 335 336 337 337 336 337 337 337 336 334 330 327 331
339 339 340 339 338 337 335 333 333 333 335 336 338 337 337 337 338 338 337 337 337 338 337 335 335 334 332 333 335 336 337 336 336 336 337 336 335 334 332 330 327 328 328
341 341 338 338 338 338 336 334 333 333 334 335 335 336 337 337 337 337 337 336 336 335 337 337 336 334 334 335 336 334 334 332 331 332 332 334 333 331 331 330 331 333 333
343 340 340 336 338 338 337 335 334 332 332 332 332 333 334 334 334 335 335 334 334 335 335 334 333 333 333 334 334 333 331 331 331 330 329 329 330 331 329 329 330 328 327
342 341 339 337 336 337 335 335 334 333 332 332 333 333 333 333 333 333 333 333 333 333 333 333 333 332 331 331 331 331 331 330 330 328 328 327 326 329 331 331 330 326 324
343 341 340 338 335 333 333 335 334 334 333 333 333 332 332 332 331 330 329 331 332 332 332 332 332 333 332 332 332 331 329 329 328 327 328 329 330 330 330 330 330 329 328
343 341 341 337 335 333 334 334 334 333 331 331 330 332 332 331 330 331 329 327 328 328 329 326 325 326 326 324 323 322 322 326 329 330 330 329 328 328 328 326 325 324 323
343 342 340 338 335 335 335 335 333 331 328 325 327 329 330 330 329 327 327 326 327 327 326 324 323 322 321 317 314 316 314 311 311 315 319 319 316 315 316 315 316 316 315
339 341 339 339 337 335 336 335 335 332 330 325 323 325 329 329 327 327 327 325 326 324 321 320 318 319 318 315 315 313 313 313 312 313 313 313 313 314 313 312 311 313 313
334 338 339 339 338 336 336 335 334 331 330 329 326 326 327 326 326 325 325 324 322 319 317 316 316 316 316 317 316 313 314 315 314 314 313 313 312 312 312 311 311 311 309
335 337 337 338 337 336 335 333 331 331 329 327 325 324 324 323 322 319 320 318 316 313 312 311 311 311 313 314 315 314 312 312 312 312 311 309 309 307 305 303 302 301 302
332 333 334 334 334 331 332 330 330 328 326 325 322 322 321 319 319 318 318 318 311 311 313 314 314 311 310 305 305 304 305 308 307 307 306 305 303 302 301 300 299 300 300
329 328 329 329 324 325 326 323 324 323 324 321 321 320 319 318 318 317 316 315 314 313 309 306 304 304 303 302 302 302 302 302 302 303 303 302 300 299 299 298 297 298 298
325 324 324 323 323 323 319 318 319 318 317 318 318 317 317 316 312 309 308 305 305 304 303 303 303 303 302 302 302 301 301 300 301 301 301 300 300 299 298 297 298 298 298
323 321 320 319 317 316 315 311 305 303 303 303 303 303 303 302 301 303 303 303 303 303 303 303 303 302 302 302 301 301 300 300 301 300 300 300 299 298 297 296 297 297 297
315 312 309 307 304 302 302 301 301 300 299 298 298 298 298 299 302 303 303 303 302 301 301 301 301 301 301 301 300 300 300 299 300 300 299 298 297 297 296 296 297 297 297
306 306 306 304 306 307 306 306 304 302 300 298 298 298 300 301 302 302 302 302 301 300 299 299 299 300 301 300 300 299 298 297 297 297 297 297 296 296 295 296 296 296 297
308 308 307 307 308 308 307 306 306 305 302 300 299 300 301 301 301 300 301 300 299 299 298 298 298 297 297 296 296 297 297 297 297 297 296 296 295 294 295 295 295 296 297
309 308 308 308 308 307 307 307 306 306 305 305 302 300 300 300 300 299 299 299 298 298 298 298 297 297 296 296 296 296 297 297 297 296 296 295 294 294 294 294 294 294 296
309 309 309 309 309 308 308 307 307 306 305 304 303 301 300 300 300 299 298 298 298 298 298 298 297 297 296 296 296 296 296 296 296 296 296 295 293 293 294 294 294 294 295
311 310 310 310 309 310 309 309 308 307 306 304 299 300 300 300 299 298 298 298 298 298 298 297 297 296 296 296 296 296 296 296 296 296 296 296 295 292 293 294 294 294 294
313 311 312 311 311 311 308 309 307 306 306 303 300 300 299 299 298 298 299 299 299 298 297 297 297 297 297 297 297 297 296 296 296 296 295 294 293 291 293 293 294 294 294
312 311 312 312 312 312 309 308 307 306 305 303 301 300 299 299 299 299 299 299 299 298 298 297 297 296 296 295 293 293 294 294 293 292 290 289 290 291 293 293 293 293 293
310 311 311 311 312 311 309 309 307 306 305 304 302 301 300 299 299 299 299 299 298 298 298 297 297 297 297 294 295 292 291 290 290 289 289 288 289 292 293 293 292 292 293
307 308 309 310 310 310 310 309 308 307 305 304 303 302 301 300 300 300 299 299 299 298 298 298 297 298 296 296 296 297 295 292 292 293 293 289 290 292 293 293 292 292 293
Wind_Speed
3 5 6 7 10 8 10 10 11 10 8 7 3 3 2 7 10 11 12 13 15 13 20 21 20 20 18 16 20 16 12 16 15 15 10 10 13 15 15 9 8 13 13
1 2 5 7 9 9 7 9 9 10 9 9 8 8 8 7 8 10 12 12 15 15 15 16 17 19 19 15 13 13 16 19 12 11 10 13 14 11 9 7 7 10 9
0 3 2 2 5 7 6 8 8 9 10 11 10 8 9 8 7 7 7 10 10 10 10 12 12 12 11 15 15 15 13 12 6 4 5 7 6 7 6 8 10 12 11
1 3 2 1 1 2 4 5 8 10 12 12 12 12 11 9 7 5 3 8 11 13 14 15 15 17 17 13 12 12 11 7 8 6 4 2 5 6 8 9 12 12 17
3 1 1 1 2 3 4 5 7 11 11 10 10 11 11 9 9 6 5 7 11 14 15 14 11 11 11 11 12 11 9 9 9 10 9 7 8 9 10 13 13 10 10
7 6 3 2 3 3 6 7 6 7 8 7 7 6 6 6 7 6 5 4 4 3 4 7 8 8 9 10 10 11 11 10 12 8 9 13 15 18 17 14 12 13 10
18 11 9 8 10 6 7 8 7 7 6 6 6 6 5 5 5 5 4 4 4 4 4 3 4 5 7 7 6 5 7 8 9 12 11 11 12 12 13 13 13 15 14
18 14 17 16 13 11 10 9 9 7 7 6 6 4 3 4 3 6 6 5 4 4 4 4 6 6 7 6 4 3 3 4 5 6 9 12 9 8 9 9 11 14 14
17 16 22 18 17 15 14 12 10 7 5 3 4 6 7 6 5 4 4 5 5 5 5 6 6 7 8 7 3 5 9 10 10 9 7 6 5 6 8 9 9 11 12
17 21 25 23 20 19 18 18 15 10 6 4 5 5 8 10 10 6 4 2 3 6 8 8 8 5 6 6 4 5 4 5 4 2 2 2 0 1 3 4 6 8 10
8 18 28 29 25 23 20 18 15 11 5 5 6 7 10 10 11 8 5 4 3 8 9 11 11 7 4 3 2 1 2 2 2 2 3 4 4 5 7 7 10 11 11
9 16 25 27 28 25 19 20 15 9 8 9 9 9 11 12 11 8 7 6 6 7 9 9 9 6 2 0 2 1 2 2 1 2 2 3 6 9 11 13 11 8 6
9 19 25 28 26 27 22 20 16 12 10 9 9 9 11 11 9 6 3 3 9 6 6 4 5 6 6 5 4 4 3 3 4 3 3 4 5 8 9 8 8 7 5
10 15 14 15 17 19 18 15 12 10 10 11 11 12 12 11 11 9 10 10 9 8 8 11 12 11 10 10 10 10 9 7 5 3 2 3 4 7 9 9 6 5 4
12 13 14 16 17 16 17 16 13 15 12 12 13 13 13 14 14 14 14 14 14 12 11 9 9 8 7 8 9 8 9 6 4 5 4 4 6 9 8 5 4 5 6
16 17 16 16 16 16 15 18 18 15 13 12 12 9 12 12 15 17 16 14 13 10 9 7 6 3 4 5 5 4 7 8 3 4 5 7 8 9 8 5 5 6 7
20 21 21 21 22 22 19 16 16 15 13 13 12 13 13 15 18 16 14 13 10 6 5 10 9 6 5 3 4 7 9 8 3 3 5 5 8 10 8 6 7 7 9
25 24 24 25 23 22 20 19 19 16 13 13 15 15 16 17 16 13 11 10 9 7 8 7 5 3 4 7 8 8 5 5 4 2 3 7 10 10 6 5 6 7 5
21 20 19 19 18 17 17 15 14 15 15 14 13 15 16 16 14 11 9 8 5 4 4 4 6 6 7 7 6 2 1 2 1 4 8 12 13 6 5 4 5 4 4
16 15 14 12 11 10 10 9 10 9 8 8 9 12 14 13 11 9 6 3 2 2 3 3 4 4 5 8 9 2 2 2 3 7 9 14 10 8 6 5 7 6 4
13 13 9 7 9 8 8 7 5 6 3 4 6 10 10 8 9 8 6 3 5 6 6 6 3 2 4 5 8 2 6 2 4 7 11 12 12 7 5 4 7 4 4
8 10 12 11 9 4 5 7 5 5 3 1 2 11 10 9 8 5 5 7 5 2 2 6 4 1 0 4 9 7 6 9 9 11 13 14 14 8 7 6 4 3 3
8 12 13 13 12 8 5 7 7 7 6 3 3 15 9 9 7 7 7 6 5 3 2 6 5 6 7 9 11 13 10 8 10 12 14 15 12 8 8 6 3 1 3
7 4 13 15 15 11 7 6 10 11 7 8 9 9 10 10 8 7 7 7 6 5 5 5 4 6 9 14 11 8 9 11 13 14 11 7 4 6 6 5 4 6 8
7 4 8 16 17 13 8 9 11 14 9 12 14 13 11 11 10 9 8 5 4 10 10 11 8 9 12 4 8 6 6 7 7 7 7 5 4 6 5 6 6 5 2
9 8 5 7 8 12 14 14 16 16 14 14 14 14 13 12 11 9 9 8 7 12 10 13 11 11 8 3 5 8 9 5 3 5 5 2 6 5 3 3 2 3 3
Wind_Direction
87 72 56 64 44 45 46 49 49 38 42 65 94 115 170 198 203 200 211 221 226 221 216 221 222 222 221 214 216 217 240 256 257 243 235 237 220 233 229 217 243 238 235
50 68 54 35 27 37 48 45 42 44 47 69 66 77 95 123 164 180 189 200 206 196 206 218 220 212 188 195 219 224 230 237 252 253 245 232 228 233 264 213 205 235 230
208 46 79 55 8 27 51 44 49 45 66 74 81 86 82 101 116 132 166 192 205 194 188 188 185 181 200 216 229 220 201 191 182 214 212 239 230 206 222 222 225 226 221
209 353 49 69 15 38 68 56 69 71 85 87 87 88 93 94 91 94 160 176 172 170 171 179 183 196 195 180 191 208 227 247 245 214 189 176 204 238 238 245 241 226 216
194 227 108 87 144 85 109 108 85 105 111 96 87 91 99 104 100 101 127 156 162 165 165 168 163 166 176 189 211 230 222 225 221 228 242 226 246 244 234 237 237 227 212
222 254 229 244 145 136 155 151 135 129 128 113 109 97 104 114 117 119 115 131 156 188 219 237 251 252 246 244 247 247 244 244 252 253 251 249 251 244 226 216 218 220 208
215 229 230 212 188 213 166 158 152 142 138 134 121 113 107 105 117 113 117 157 150 134 149 190 211 214 211 222 260 266 277 254 258 264 253 244 238 239 229 235 223 225 225
208 217 200 186 196 188 179 170 155 148 151 150 149 152 158 153 128 91 61 70 96 115 115 95 95 101 98 85 71 72 108 107 90 127 200 213 207 221 238 231 223 223 224
202 199 194 201 198 197 190 180 173 165 146 145 165 169 168 165 131 125 89 73 75 115 107 107 104 104 98 95 105 133 129 113 111 124 140 155 179 199 211 219 225 228 224
207 202 195 197 204 206 198 188 182 184 174 177 194 183 163 156 163 173 174 172 220 165 148 141 130 123 117 109 119 116 117 112 112 115 188 210 246 296 291 269 249 234 242
201 208 198 201 206 213 203 187 181 183 187 169 181 186 178 180 182 183 200 211 185 162 147 136 124 123 122 123 124 354 351 75 52 7 347 341 333 320 321 321 313 296 291
178 190 183 192 195 196 193 179 180 194 194 178 170 173 172 180 185 160 146 130 151 168 153 144 142 141 133 260 311 306 160 186 269 314 283 329 344 352 356 354 355 354 348
180 179 181 180 183 171 179 174 170 177 166 158 160 167 169 168 175 160 180 149 144 162 151 148 125 114 101 80 68 41 41 43 42 37 32 5 354 351 347 340 324 315 301
157 157 161 169 156 154 158 153 140 142 149 151 150 151 149 146 146 141 136 133 135 132 114 107 104 97 90 81 77 69 58 44 38 23 4 14 2 350 351 352 344 344 359
134 136 141 142 139 137 129 124 129 127 124 129 134 133 138 140 135 132 131 128 124 120 113 108 100 84 69 68 64 58 37 53 67 75 62 25 352 338 345 354 341 349 355
125 124 124 123 122 124 126 123 118 116 120 128 129 132 138 137 133 130 127 122 113 98 93 97 100 94 94 71 90 43 23 20 48 35 14 357 354 353 350 350 4 360 355
116 115 114 111 108 102 100 100 107 110 115 114 116 123 127 128 128 126 119 115 106 97 110 110 109 110 95 62 345 332 339 353 11 337 348 3 354 349 348 3 20 21 359
107 104 104 107 99 88 83 84 82 82 98 116 119 121 124 126 127 129 138 139 118 78 60 56 54 5 344 337 329 326 339 45 21 53 5 349 339 339 333 356 1 360 25
111 109 104 100 93 87 83 82 82 79 85 94 117 131 133 134 136 141 152 149 122 90 59 46 35 36 4 8 22 71 61 72 36 340 343 344 335 331 329 350 337 347 340
125 114 114 118 125 128 129 123 132 117 90 79 102 131 140 147 150 150 149 166 223 288 303 325 5 356 8 23 22 203 251 295 264 322 327 338 327 308 305 331 327 318 336
140 143 142 137 145 146 168 154 157 175 128 110 144 151 162 175 187 179 187 252 281 277 270 270 224 270 358 8 4 322 277 344 300 306 320 328 343 295 285 314 326 311 328
170 172 179 189 205 227 249 247 236 212 188 107 150 181 171 192 196 202 253 287 289 295 259 234 199 213 209 299 315 322 304 283 304 310 311 314 321 287 267 286 299 331 16
210 208 212 206 219 244 221 214 236 209 196 167 146 173 179 181 214 267 284 286 297 317 161 160 219 271 271 288 296 297 288 292 298 301 307 311 311 259 265 281 269 297 331
200 218 232 239 237 239 236 214 211 202 231 206 204 191 206 224 240 252 265 285 287 219 210 229 271 294 294 303 295 293 289 293 297 302 308 310 282 231 260 251 260 291 306
239 266 220 228 234 242 230 217 203 207 221 212 213 218 228 234 239 257 270 289 263 210 240 234 263 295 317 76 43 9 322 304 305 307 301 282 232 197 230 275 286 291 212
261 252 238 216 230 251 246 237 221 217 219 228 238 238 240 242 245 261 270 264 277 236 245 240 265 294 279 276 354 359 3 358 5 355 328 226 184 201 189 63 101 170 231